FENGYUN 1C DEB

Satellite information

Favourite Embed

Satellite Type and Status

DEBRISIN ORBIT

Key statistics

Satellite FENGYUN 1C DEB at a glance.

Uptime

9715

Days in orbit

Revolutions

≈ 14.1

Per day

Orbit

SSO

Sun Synchronous Orbit

Inclination

99.3

Latest

Satellite identification and parameters

Extended collection of information and parameters for FENGYUN 1C DEB.

Object identification

Identified? True

Debris? True

Object name: FENGYUN 1C DEB

International designator: 1999-025TA

Object number (NORAD): 30145

Object ID (CCSDS): 30145

Country: PEOPLES REPUBLIC OF CHINA (PRC)

Current information (Y/N): Y

RCS size: SMALL

Orbital parameters

Period: 101.837 minutes

Inclination: 99.2692 deg

SMA: 7223.79 km

Apoapsis: 911.832 km

Periapsis: 779.478 km

RAAN: 95.8381 deg

Eccentricy: 0.00916101

Argument of periapsis: 150.076 deg

Mean anomaly: 265.1489 deg

Mean motion: 14.14018541 rev/day

Mean motion (dot): 0.00008575 rev/day2

B* drag term: 0.0043531147 1/REarth

Two-line elements (TLE)

Creation date: Dec. 12, 2025, 10:14 a.m.

Reference frame: TEME

Reference center: EARTH

Epoch: Dec. 12, 2025, 6:37 a.m. UTC

TLE line 0: 0 FENGYUN 1C DEB

TLE line 1: 1 30145U 99025TA 25346.27579152 .00008575 00000-0 43531-2 0 9999

TLE line 2: 2 30145 99.2692 95.8381 0091610 150.0760 265.1489 14.14018541961899

Live tracking on map

Real-time ground track for satellite FENGYUN 1C DEB.

In-orbit conjunctions

A list of the most updated potential collisions computed for object FENGYUN 1C DEB.

Target Orbit TCA Probability of collision Miss distance Type
COSMOS 2251 DEB LEO 2025-08-14 23:30:36 0.0001530135 349.0 (m) DEBRIS
METEOR 2-20 DEB LEO 2024-12-09 01:32:11 0.0005592607 248.0 (m) DEBRIS
FENGYUN 1C DEB SSO 2024-11-10 07:49:10 0.0001548954 986.0 (m) DEBRIS

Associated space launch

Chinese polar orbiting meteorological satellite

FENGYUN 1C DEB was lifted into orbit during the mission ‘Long March 4B | Feng Yun 1C’, on board a Long March 4B space rocket.

The launch took place on May 10, 1999, 1:33 a.m. from Launch Complex 7.

For more information about the launch, click the button.

Launch to space Long March 4B | Feng Yun 1C
Long March 4B | Feng Yun 1C

Agency: N/A

Status: Launch Successful

Launch date: May 10, 1999, 1:33 a.m. UTC

Rocket: Long March 4B

Launch pad: Launch Complex 7

Location: Taiyuan Satellite Launch Center, People's Republic of China

...

Latest news about this satellite

There are no fresh news available about this satellite. Check back as we update our databases every day.


Newsletter sign-up

Weekly statistics, charts and insights to help you stay on top of the space industry.